Menu

ASI In-Person Safety Seminars

Air Safety Institute Logo

Welcome

Join other pilots for comradery and increase your safety knowledge.

Registration is not required to attend, but we do encourage it. When you RSVP, you will be able to have the opportunity to add to your online event calendar.

Collision Course

Collision Course: Avoiding Airborne Traffic

 

The “big sky” can get awfully small when multiple aircraft are in the vicinity. Even with ATC support and traffic displays, near misses happen too frequently and midair collisions still happen. Advanced technologies which ensure more precise course and altitude tracking and more aircraft converging on fewer airports all work to shrink the “big sky”.   

 

ASI’s new seminar looks at the problem from a risk management perspective. We identify high-risk scenarios and locations, then lay out strategies for avoiding them. From congested corridors to frenetic fly-ins, we talk about:

 

·         Human eye limitations that impact the “see and avoid” philosophy

·         Proven techniques on enhancing visual scan effectiveness

·         Maximizing your visibility to other aircraft

·         The promise and peril of cockpit technology

·         “Danger zones” you may not be aware of

Location Start Time End Time State Latitude Longitude cssIndex Topic cssIndex
Fairfax, VA 01-10-2018 7:00 PM 01-10-2018 9:00 PM Learn More Virginia 38.858813000000000 -77.386968000000000 1 mtgCollisionCourse SSCOLL_VA_180110
Reno, NV 01-15-2018 7:00 PM 01-15-2018 9:00 PM Learn More Nevada 39.489013000000000 -119.794833000000000 1 mtgCollisionCourse SSCOLL_NV_180115
Houston, TX 01-15-2018 7:00 PM 01-15-2018 9:00 PM Learn More Texas 29.615100000000002 -95.199799999999996 1 mtgCollisionCourse SSCOLL_TX_180115
Sacramento, CA 01-16-2018 7:00 PM 01-16-2018 9:00 PM Learn More California 38.600554000000000 -121.431605000000000 1 mtgCollisionCourse SSCOLL_CA_180116
Houston, TX 01-16-2018 7:00 PM 01-16-2018 9:00 PM Learn More Texas 29.787817000000000 -95.643658000000000 1 mtgCollisionCourse SSCOLL_TX_180116
Milpitas, CA 01-17-2018 7:00 PM 01-17-2018 9:00 PM Learn More California 37.434131000000000 -121.891969000000000 1 mtgCollisionCourse SSCOLL_CA_180117
San Antonio, TX 01-17-2018 7:00 PM 01-17-2018 9:00 PM Learn More Texas 29.520264000000000 -98.492419000000000 1 mtgCollisionCourse SSCOLL_TX_180117
Austin, TX 01-18-2018 7:00 PM 01-18-2018 9:00 PM Learn More Texas 30.214544000000000 -97.749725000000000 1 mtgCollisionCourse SSCOLL_TX_180118
Santa Rosa, CA 01-18-2018 7:00 PM 01-18-2018 9:00 PM Learn More California 38.449800000000000 -122.688700000000000 1 mtgCollisionCourse SSCOLL_CA_180118
Van Nuys, CA 01-22-2018 7:00 PM 01-22-2018 9:00 PM Learn More California 34.207661000000000 -118.486048000000000 1 mtgCollisionCourse SSCOLL_CA_180122
Mesa, AZ 01-22-2018 7:00 PM 01-22-2018 9:00 PM Learn More Arizona 33.385852000000000 -111.840262000000000 1 mtgCollisionCourse SSCOLL_AZ_180122
Ontario, CA 01-23-2018 7:00 PM 01-23-2018 9:00 PM Learn More California 34.065013000000000 -117.610812000000000 1 mtgCollisionCourse SSCOLL_CA_180123
Tucson, AZ 01-23-2018 7:00 PM 01-23-2018 9:00 PM Learn More Arizona 32.250805000000000 -110.882992000000000 1 mtgCollisionCourse SSCOLL_AZ_180123
Costa Mesa, CA 01-24-2018 7:00 PM 01-24-2018 9:00 PM Learn More California 33.685262000000000 -117.885804000000000 1 mtgCollisionCourse SSCOLL_CA_180124
San Diego, CA 01-25-2018 7:00 PM 01-25-2018 9:00 PM Learn More California 32.758909000000000 -117.179693000000000 1 mtgCollisionCourse SSCOLL_CA_180125
Albuquerque, NM 01-25-2018 7:00 PM 01-25-2018 9:00 PM Learn More New Mexico 35.050136000000000 -106.621906000000000 1 mtgCollisionCourse SSCOLL_NM_180125
Addison, TX 01-30-2018 7:00 PM 01-30-2018 9:00 PM Learn More Texas 32.962206000000000 -96.829706000000000 1 mtgCollisionCourse SSCOLL_TX_180130
Ft Worth, TX 01-31-2018 7:00 PM 01-31-2018 9:00 PM Learn More Texas 32.824143000000000 -97.312567000000000 1 mtgCollisionCourse SSCOLL_TX_180131
Northglenn, CO 02-07-2018 7:00 PM 02-07-2018 9:00 PM Learn More Colorado 39.913847000000000 -104.987451000000000 1 mtgCollisionCourse SSCOLL_CO_180207
Colorado Springs, CO 02-08-2018 7:00 PM 02-08-2018 9:00 PM Learn More Colorado 38.796367000000000 -104.795605000000000 1 mtgCollisionCourse SSCOLL_CO_180208
Wichita, KS Special Aviation Location Fly to this Location 02-20-2018 7:00 PM 02-20-2018 9:00 PM Learn More Kansas 37.656569000000000 -97.425559000000000 1 mtgCollisionCourse SSCOLL_KS_180220
Germantown, TN 02-20-2018 7:00 PM 02-20-2018 9:00 PM Learn More Tennessee 35.096980000000000 -89.806730000000000 1 mtgCollisionCourse SSCOLL_TN_180220
Nashville, TN 02-21-2018 7:00 PM 02-21-2018 9:00 PM Learn More Tennessee 36.145806000000000 -86.686244000000000 1 mtgCollisionCourse SSCOLL_TN_180221
Oklahoma City, OK Special Aviation Location Fly to this Location 02-21-2018 7:00 PM 02-21-2018 9:00 PM Learn More Oklahoma 35.540679000000000 -97.636879000000000 1 mtgCollisionCourse SSCOLL_OK_180221
Maryville, TN 02-22-2018 7:00 PM 02-22-2018 9:00 PM Learn More Tennessee 35.810700000000000 -83.946500000000000 1 mtgCollisionCourse SSCOLL_TN_180222
Rogers, AR Special Aviation Location Fly to this Location 02-22-2018 7:00 PM 02-22-2018 9:00 PM Learn More Arkansas 36.370622000000000 -94.103776000000000 1 mtgCollisionCourse SSCOLL_AR_180222

Questions? Contact us at [email protected] or 800/USA-AOPA (800/872-2672)
Monday - Friday, 8:30 am - 6:00 pm ET